RH
50 52 46 40 40 39 40 47 53 55 59 62 67 69 72 72 73 74 78 83 88 90 92 94 89 82 81 79 86 81 81 84 83 86 89 86 82 78 72 65 54 32 19
71 61 52 49 48 47 46 48 53 59 69 72 74 74 76 78 81 81 83 81 83 86 81 88 76 74 79 80 79 82 82 72 78 78 84 95 92 85 79 76 70 61 39
69 67 63 60 56 54 52 49 53 65 72 75 78 81 85 86 84 82 82 84 77 81 75 79 82 76 76 81 76 81 78 71 73 72 80 88 94 95 92 85 80 73 64
76 76 74 71 68 65 61 58 70 77 82 84 86 87 83 83 83 82 85 85 82 80 83 89 84 74 74 72 76 69 69 65 69 72 72 86 91 98 98 97 90 86 78
83 86 79 79 75 68 76 78 82 87 92 94 92 81 83 82 85 87 80 79 82 83 84 82 78 83 72 79 77 69 63 69 73 71 74 77 90 91 91 93 96 91 88
81 87 80 78 77 74 78 84 92 97 93 90 89 83 84 78 76 73 77 74 78 72 73 80 79 84 83 81 79 65 67 67 67 70 62 60 67 81 86 90 96 94 89
82 83 80 84 86 88 88 87 88 87 87 89 82 76 79 68 64 55 56 64 67 61 60 66 80 86 71 79 67 68 68 70 70 63 55 57 55 62 77 82 85 93 99
89 87 85 80 83 82 86 91 92 91 85 88 94 88 85 73 64 65 63 69 74 72 71 78 82 82 87 77 76 77 75 72 71 72 72 63 80 58 66 78 86 84 89
84 75 77 82 78 77 84 94 89 84 97 87 84 96 88 85 87 76 83 72 70 69 80 78 81 76 77 81 85 86 83 80 74 71 67 65 86 94 96 87 84 94 94
73 76 86 72 81 79 76 73 78 95 85 56 46 44 50 65 87 84 81 80 80 80 85 87 86 73 76 72 89 89 88 88 74 67 70 70 99 96 98 99 92 68 86
76 80 83 84 79 78 75 67 68 58 38 36 36 39 44 48 54 73 82 67 72 88 81 87 84 84 83 94 94 93 93 84 74 73 83 90 95 97 95 94 95 100 87
78 73 80 79 72 72 68 67 39 36 35 34 36 40 45 52 59 68 78 70 68 83 89 88 80 82 96 97 94 100 93 86 80 79 78 88 99 100 94 97 98 99 99
88 82 68 62 62 75 51 37 34 33 34 36 37 40 45 48 56 64 82 97 95 86 92 95 87 84 89 94 100 98 92 86 85 86 84 84 82 84 94 99 100 95 86
87 80 70 64 75 49 37 40 48 40 39 40 43 44 45 48 53 63 72 78 98 92 96 99 92 94 93 99 100 99 98 91 92 87 82 75 74 76 78 85 79 70 69
68 65 76 76 47 40 58 66 60 51 47 49 52 52 52 54 59 64 72 74 87 99 90 92 90 96 98 100 100 99 97 92 97 91 77 72 75 79 73 72 74 86 85
66 80 74 48 41 57 62 60 63 57 49 54 55 58 61 60 61 66 75 81 91 99 100 96 89 88 98 96 99 100 99 98 99 87 77 77 80 78 76 74 73 86 98
75 61 46 42 57 59 52 58 59 50 53 58 61 62 65 67 71 76 80 91 99 99 100 100 96 96 99 100 100 100 96 100 95 84 73 72 75 78 70 64 69 74 90
61 52 54 59 60 54 58 52 53 52 54 58 64 67 70 71 71 72 79 98 99 99 100 100 94 100 100 100 100 97 98 100 92 88 75 70 62 57 56 57 65 70 88
58 54 53 54 52 51 51 54 54 54 56 63 68 72 77 82 79 83 90 98 99 98 99 99 98 100 100 100 99 99 100 100 92 81 73 62 36 20 22 42 54 72 80
53 51 53 54 53 53 55 56 55 55 60 67 73 79 82 86 91 94 98 100 97 98 100 99 99 100 100 100 99 100 98 94 86 71 41 24 18 13 13 14 16 38 71
57 58 58 59 57 58 60 60 59 61 64 71 78 90 99 100 100 99 98 98 99 99 99 100 100 100 98 99 98 82 84 70 44 27 17 16 16 20 18 14 10 10 19
62 63 63 62 61 63 64 64 61 61 66 84 99 99 98 99 98 98 98 96 95 99 100 100 100 100 98 89 59 51 37 26 22 14 12 16 20 16 14 13 11 8 8
68 68 68 66 65 67 67 66 64 69 86 99 99 99 99 99 98 76 45 40 78 90 91 85 80 50 44 39 28 24 20 18 16 15 13 13 16 18 17 16 12 14 13
72 71 70 68 69 71 71 73 83 97 100 98 99 99 98 99 56 16 15 18 16 12 11 9 12 13 14 14 15 16 15 13 13 14 15 16 17 16 19 20 20 22 24
76 76 75 73 74 74 76 83 96 99 99 99 99 99 100 78 19 21 22 17 15 14 13 11 11 12 10 10 9 9 11 10 10 10 14 18 18 22 26 28 28 28 26
82 82 80 78 78 76 79 90 93 98 99 99 100 94 60 17 21 23 20 13 16 18 19 18 14 11 10 11 9 9 10 10 9 9 10 15 22 30 30 30 32 33 30
Wind_Speed
12 10 9 9 8 8 6 7 5 5 4 4 3 3 3 3 5 4 4 5 6 8 9 10 12 14 15 15 12 12 13 13 12 11 11 10 9 9 9 8 7 6 4
13 10 9 9 9 7 7 7 6 6 5 4 4 4 5 5 5 5 6 8 11 12 13 10 13 14 15 13 14 12 13 14 12 13 13 12 11 10 9 8 8 8 7
12 11 10 9 9 9 8 7 7 6 6 6 6 6 6 6 8 9 11 11 12 13 15 15 12 12 15 13 14 14 17 15 14 13 13 13 12 12 11 10 9 8 7
13 13 11 9 9 9 9 8 7 6 6 7 7 6 8 10 11 13 14 15 16 19 21 17 13 12 14 12 13 16 18 17 15 13 11 10 14 15 13 12 10 9 8
11 13 12 10 11 11 9 8 8 7 7 7 8 9 12 14 15 16 18 19 21 21 18 16 13 14 10 10 11 14 16 16 16 14 12 12 13 11 15 15 13 11 9
13 13 13 12 11 12 9 8 8 8 8 10 13 15 15 17 20 23 24 24 22 22 20 19 14 12 11 11 10 14 12 14 19 18 16 13 13 13 13 12 17 17 14
16 10 9 11 11 9 7 7 8 10 11 13 15 18 18 21 20 18 19 17 15 11 11 12 13 13 13 11 15 14 13 12 18 17 18 16 13 13 12 13 14 14 22
23 20 16 14 15 13 11 11 12 14 15 15 18 19 14 18 2 5 11 10 13 14 10 10 11 13 12 13 13 13 14 15 16 19 18 16 12 11 10 9 10 13 11
23 21 21 20 15 14 14 16 17 17 19 19 18 16 8 5 16 12 9 17 15 13 9 9 11 13 15 15 13 14 15 18 19 20 18 14 10 8 8 9 12 10 11
25 22 24 22 16 16 17 19 21 20 21 19 18 17 16 17 11 9 7 6 7 7 11 13 15 17 18 19 16 16 17 18 16 16 15 12 8 10 10 9 9 11 15
23 17 19 18 13 16 18 23 21 19 18 18 18 18 16 14 15 16 19 18 17 14 13 17 20 20 19 18 17 16 16 15 15 12 10 8 11 11 8 7 4 7 10
17 14 15 13 10 20 21 18 17 18 18 18 17 18 18 16 15 14 16 19 20 18 14 16 19 20 21 16 20 16 15 14 15 13 11 14 15 13 6 2 5 5 7
19 17 14 13 14 17 15 15 17 18 18 19 19 18 18 18 18 17 17 18 19 21 22 20 19 21 22 22 19 16 16 14 17 16 14 16 18 17 12 11 9 6 9
17 14 17 17 17 13 10 11 17 19 19 20 18 17 18 17 17 17 17 17 18 19 18 21 23 21 22 18 17 18 14 14 20 17 16 17 16 11 11 11 12 11 12
17 18 23 17 12 7 9 23 22 19 19 19 18 17 18 17 17 17 18 17 15 14 16 18 19 22 21 20 18 15 15 15 21 17 14 13 12 10 9 11 8 7 8
20 19 16 13 11 16 28 31 29 28 24 20 19 18 18 17 17 18 18 17 16 17 20 19 19 21 19 20 18 16 15 17 19 16 13 10 10 9 9 8 6 5 6
17 17 16 16 18 19 31 28 28 23 20 20 19 18 18 18 17 18 19 16 15 17 18 20 18 20 20 22 16 16 18 21 16 14 12 11 10 10 10 8 8 6 5
17 17 16 17 13 22 22 20 19 20 20 19 18 18 18 19 18 18 17 13 15 17 18 20 20 18 15 16 19 19 20 17 14 13 12 12 11 11 10 7 7 7 5
16 16 14 14 19 18 18 18 19 19 19 18 17 17 16 17 18 17 16 15 16 18 18 20 22 24 22 20 19 18 17 13 14 12 12 12 11 12 8 8 7 8 7
16 15 16 16 14 15 17 18 19 19 18 18 17 16 16 17 17 16 13 12 13 14 14 13 14 16 17 17 17 18 14 12 13 12 12 12 11 11 10 8 7 7 9
16 14 13 13 13 14 15 17 19 20 19 18 16 13 13 14 10 8 9 10 10 11 12 14 14 15 16 16 16 13 12 12 12 12 11 11 11 10 9 9 7 7 9
14 13 13 12 12 13 16 19 21 20 18 14 12 11 12 10 8 8 9 9 10 11 11 13 14 14 13 13 12 11 11 11 11 10 11 10 9 8 7 6 6 5 6
14 13 12 11 12 14 17 19 22 20 13 10 10 10 10 8 8 8 8 9 9 9 10 11 13 12 12 11 11 11 10 10 11 10 8 8 8 7 6 5 4 2 2
14 13 13 13 13 15 17 18 18 14 9 9 9 9 10 9 8 8 8 7 6 6 8 10 11 10 9 9 9 9 10 9 8 8 7 5 6 6 6 6 4 4 4
15 14 14 14 14 15 15 14 13 11 9 9 10 10 10 9 10 8 7 7 7 5 6 6 7 6 7 8 8 7 7 7 6 6 6 5 5 6 6 6 6 6 5
16 16 16 15 15 14 14 12 11 11 10 11 11 10 10 11 11 9 7 7 6 6 5 5 4 4 4 4 4 4 4 5 4 3 5 6 5 4 3 7 8 7 7
Wind_Direction
191 200 215 210 207 209 211 209 213 214 220 233 250 261 284 298 308 313 319 322 321 327 327 331 324 332 330 328 332 330 323 320 311 300 303 313 319 327 330 333 335 331 331
213 213 216 213 211 210 209 214 218 224 235 254 273 289 297 301 308 313 313 323 312 309 310 304 315 317 307 317 319 318 325 325 320 314 301 293 298 309 315 320 326 325 318
222 230 225 225 219 216 217 223 225 230 244 266 289 303 306 307 305 307 303 301 303 297 296 297 300 301 301 312 314 315 319 318 316 314 310 282 288 293 299 307 309 309 313
236 237 234 233 228 229 226 225 231 242 263 281 295 302 305 306 301 299 296 294 295 294 290 289 279 283 292 294 297 307 316 318 317 315 303 293 276 280 286 292 297 301 302
245 246 239 238 237 234 232 234 241 257 276 291 297 301 298 300 295 295 289 285 287 291 287 285 279 277 286 270 302 320 327 322 319 315 303 286 278 286 268 273 283 287 285
254 248 239 231 234 232 234 249 260 264 280 289 289 289 286 284 283 289 285 283 286 289 283 276 272 267 252 258 299 313 324 328 328 314 311 292 281 276 273 270 262 267 270
236 222 216 213 221 218 238 251 260 276 273 277 281 292 289 293 297 298 297 292 294 295 296 267 249 255 260 268 295 288 299 317 332 335 322 303 284 273 266 268 266 266 263
225 217 216 223 225 229 239 249 255 261 269 269 277 295 308 314 356 329 303 285 292 290 289 255 246 249 245 269 271 287 291 308 323 327 324 311 299 288 282 266 271 264 258
236 229 228 229 241 251 250 250 276 278 275 284 282 282 295 290 300 312 274 290 290 291 278 265 259 254 258 263 271 284 288 296 311 319 317 303 301 305 278 266 249 247 250
228 225 229 225 247 268 269 267 270 277 279 285 290 286 277 274 285 299 298 288 291 281 271 262 257 264 264 271 270 277 287 293 306 320 329 322 294 276 273 277 283 260 248
230 227 218 225 248 271 271 273 277 280 283 292 293 294 291 284 276 267 281 287 289 283 277 268 267 262 262 264 271 277 289 301 308 314 326 310 271 272 315 316 284 268 264
238 235 227 231 266 257 259 264 276 284 290 292 293 292 291 289 281 272 273 279 281 281 280 274 266 264 261 260 276 267 282 297 304 302 305 280 271 276 236 281 256 275 290
247 260 235 239 249 258 265 277 290 296 301 301 297 293 289 285 281 280 276 280 277 284 278 270 269 272 271 263 257 271 279 290 303 298 293 288 287 273 256 240 259 289 306
244 247 252 252 246 247 268 307 310 301 298 293 290 290 286 284 280 277 279 279 282 275 273 272 263 257 265 262 274 273 272 291 307 296 296 299 293 277 257 258 280 286 291
234 237 244 235 233 242 291 314 310 297 296 291 289 289 285 281 278 278 277 278 274 271 277 271 265 262 276 258 261 271 271 299 305 292 296 295 281 275 277 272 279 290 313
235 227 225 228 228 285 306 310 307 306 296 295 293 290 287 283 282 279 277 280 272 258 262 269 267 268 265 268 270 257 275 300 290 283 290 289 275 278 281 276 263 274 326
218 211 216 223 265 282 288 284 284 288 293 293 291 287 284 283 280 277 278 273 260 259 260 264 263 268 254 251 245 265 290 295 276 279 284 281 279 278 282 279 257 253 282
214 214 234 252 277 276 280 283 287 290 291 290 289 288 285 280 280 282 280 263 254 255 262 267 267 262 251 247 261 271 280 276 263 270 276 281 281 279 283 276 255 242 230
231 242 247 260 267 276 282 285 286 288 293 291 288 284 281 281 285 285 280 267 254 253 258 262 267 263 257 251 260 268 272 253 256 264 275 279 281 279 281 269 255 236 233
238 239 249 256 268 276 279 285 291 294 294 289 285 283 281 283 285 288 289 278 265 260 253 249 247 249 247 248 257 263 254 246 254 261 269 274 275 278 278 269 258 246 238
231 237 246 259 268 276 286 291 293 294 288 284 288 292 293 301 295 279 277 268 263 259 250 242 239 240 246 250 260 258 244 250 259 266 270 270 271 272 278 281 270 249 241
233 238 247 258 272 284 288 292 297 296 291 287 287 289 293 293 275 267 265 264 257 246 240 237 237 238 249 254 255 248 250 257 262 264 263 266 265 267 268 270 278 256 233
234 243 253 267 278 287 292 297 302 300 286 273 268 272 277 265 264 269 270 264 255 253 247 244 248 248 250 252 251 253 256 259 261 261 266 268 261 259 257 260 254 246 225
242 250 259 271 282 288 291 298 307 299 265 256 259 267 258 254 261 262 263 264 259 255 255 247 247 248 250 251 253 255 255 252 256 262 265 262 254 250 255 258 253 236 233
246 251 259 270 277 281 287 297 306 287 257 254 255 251 247 254 256 255 257 254 254 246 244 231 234 233 247 249 248 251 253 250 250 257 257 259 257 250 258 260 255 249 237
247 251 260 269 276 281 281 284 288 278 253 247 244 243 246 245 246 250 252 249 239 236 235 236 218 223 232 247 255 249 253 257 255 261 259 258 259 247 275 255 246 244 240